Weather History for KOXI - June, 2012

Change the Weather History Date:

Saturday, June 9, 2012

  Actual Average (KVPZ) Record (KVPZ)
Temperature  
Mean Temperature 72 °F 67 °F  
Max Temperature 97 °F 78 °F 91 °F (1999)
Min Temperature 58 °F 57 °F 49 °F (2001)
Degree Days  
Heating Degree Days 0 2  
Month to date heating degree days 24  
Since 1 June heating degree days 24  
Since 1 July heating degree days 6303  
Cooling Degree Days 8 4  
Month to date cooling degree days 33  
Year to date cooling degree days 80  
Since 1 June cooling degree days 33  
Growing Degree Days 22 (Base 50)    
Moisture  
Dew Point 48 °F    
Average Humidity 41    
Maximum Humidity 70    
Minimum Humidity 24    
Precipitation  
Precipitation 0.00 in 0.14 in 0.95 in (2011)
Month to date precipitation 1.22  
Year to date precipitation 14.20  
Sea Level Pressure  
Sea Level Pressure 29.94 in    
Wind  
Wind Speed 7 mph (SW)    
Max Wind Speed 16 mph    
Max Gust Speed 23 mph    
Visibility 10 miles    
Events      
T = Trace of Precipitation, MM = Missing Value Source: NWS Daily Summary

Daily Weather History Graph

Daily Weather History Graph

Search for Another Location

Airport or City:

Trip Planner

Search our weather history database for the weather conditions in past years. The results will help you decide how hot, cold, wet, or windy it might be!

Date:

Astronomy

Jun. 09, 2012 Rise Set
Actual Time 5:13 AM CDT 8:19 PM CDT
Civil Twilight 4:39 AM CDT 8:52 PM CDT
Nautical Twilight 3:56 AM CDT 9:35 PM CDT
Astronomical Twilight 3:05 AM CDT 10:26 PM CDT
Moon No Moon Rise 11:01 AM CDT (6/9)
Length of Visible Light 16h 13m
Length of Day
15h 05m
Waning Gibbous, 68% of the Moon is Illuminated
Jun 9
Waning Gibbous
Jun 11
Last Quarter
Jun 19
New
Jun 26
First Quarter
Jul 3
Full

Hourly Weather History & Observations

Time (CDT) Temp. Dew Point Humidity Pressure Visibility Wind Dir Wind Speed Gust Speed Precip Events Conditions
12:15 AM 68.2 °F 48.0 °F 48% 29.96 in 10.0 mi SSW 5.8 mph - N/A   Clear
12:35 AM 67.5 °F 48.2 °F 50% 29.96 in 10.0 mi SW 3.5 mph - N/A   Clear
12:55 AM 66.7 °F 48.2 °F 51% 29.96 in 10.0 mi SW 5.8 mph - N/A   Clear
1:15 AM 65.7 °F 48.2 °F 53% 29.96 in 10.0 mi SSW 5.8 mph - N/A   Clear
1:35 AM 64.8 °F 48.2 °F 55% 29.96 in 10.0 mi SW 4.6 mph - N/A   Clear
1:55 AM 64.6 °F 48.2 °F 55% 29.96 in 10.0 mi SSW 4.6 mph - N/A   Clear
2:15 AM 63.1 °F 48.4 °F 59% 29.96 in 10.0 mi SSW 4.6 mph - N/A   Clear
3:15 AM 61.7 °F 48.6 °F 62% 29.95 in 10.0 mi SSW 4.6 mph - N/A   Clear
3:35 AM 61.0 °F 48.6 °F 64% 29.95 in 10.0 mi SSW 3.5 mph - N/A   Clear
3:55 AM 60.6 °F 48.6 °F 64% 29.95 in 10.0 mi SW 5.8 mph - N/A   Clear
4:15 AM 60.6 °F 48.4 °F 64% 29.95 in 10.0 mi SW 4.6 mph - N/A   Clear
4:35 AM 60.8 °F 48.4 °F 64% 29.95 in 10.0 mi SW 3.5 mph - N/A   Clear
4:55 AM 60.1 °F 48.4 °F 65% 29.96 in 10.0 mi SW 4.6 mph - N/A   Clear
5:15 AM 59.7 °F 48.6 °F 67% 29.96 in 10.0 mi SW 3.5 mph - N/A   Clear
5:35 AM 59.4 °F 48.4 °F 67% 29.97 in 10.0 mi SW 3.5 mph - N/A   Clear
5:55 AM 58.5 °F 48.7 °F 70% 29.98 in 10.0 mi SSW 4.6 mph - N/A   Clear
6:15 AM 60.6 °F 49.1 °F 66% 29.98 in 10.0 mi South 4.6 mph - N/A   Clear
6:35 AM 62.2 °F 49.6 °F 63% 29.98 in 10.0 mi Calm Calm - N/A   Clear
6:55 AM 64.0 °F 50.0 °F 60% 29.98 in 10.0 mi Calm Calm - N/A   Clear
7:15 AM 65.5 °F 49.8 °F 57% 29.99 in 10.0 mi SW 4.6 mph - N/A   Clear
7:35 AM 67.3 °F 50.4 °F 55% 29.99 in 10.0 mi SW 5.8 mph - N/A   Clear
7:55 AM 70.0 °F 50.2 °F 49% 30.00 in 10.0 mi SW 8.1 mph - N/A   Clear
8:15 AM 72.5 °F 50.7 °F 46% 30.00 in 10.0 mi SW 9.2 mph - N/A   Clear
8:35 AM 74.7 °F 50.7 °F 43% 30.00 in 10.0 mi WSW 10.4 mph - N/A   Clear
8:55 AM 76.5 °F 50.7 °F 40% 29.99 in 10.0 mi WSW 10.4 mph - N/A   Clear
9:15 AM 78.1 °F 50.2 °F 38% 29.99 in 10.0 mi WSW 11.5 mph - N/A   Clear
9:35 AM 79.2 °F 49.8 °F 36% 29.99 in 10.0 mi WSW 13.8 mph 18.4 mph N/A   Clear
9:55 AM 80.6 °F 49.8 °F 34% 29.99 in 10.0 mi WSW 12.7 mph - N/A   Clear
10:15 AM 81.9 °F 49.1 °F 32% 29.98 in 10.0 mi WSW 15.0 mph 23.0 mph N/A   Clear
10:35 AM 82.6 °F 47.8 °F 30% 29.98 in 10.0 mi WSW 16.1 mph 19.6 mph N/A   Clear
10:55 AM 83.1 °F 48.2 °F 30% 29.98 in 10.0 mi SW 13.8 mph 18.4 mph N/A   Clear
11:15 AM 83.8 °F 48.0 °F 29% 29.97 in 10.0 mi WSW 9.2 mph 19.6 mph N/A   Clear
11:35 AM 84.2 °F 47.7 °F 28% 29.97 in 10.0 mi SW 10.4 mph - N/A   Clear
11:55 AM 84.7 °F 47.7 °F 27% 29.96 in 10.0 mi SW 12.7 mph 18.4 mph N/A   Clear
12:15 PM 84.9 °F 46.6 °F 26% 29.96 in 10.0 mi SSW 11.5 mph 16.1 mph N/A   Clear
12:35 PM 85.1 °F 46.0 °F 26% 29.95 in 10.0 mi South 9.2 mph - N/A   Clear
12:55 PM 85.6 °F 46.4 °F 25% 29.94 in 10.0 mi WSW 12.7 mph 18.4 mph N/A   Clear
1:15 PM 85.8 °F 46.8 °F 26% 29.94 in 10.0 mi WSW 5.8 mph - N/A   Clear
1:35 PM 86.2 °F 46.9 °F 25% 29.93 in 10.0 mi WSW 12.7 mph 16.1 mph N/A   Clear
1:55 PM 86.5 °F 46.8 °F 25% 29.93 in 10.0 mi SW 15.0 mph 18.4 mph N/A   Clear
2:15 PM 86.9 °F 46.6 °F 25% 29.92 in 10.0 mi SW 10.4 mph 17.3 mph N/A   Clear
2:35 PM 87.4 °F 47.1 °F 25% 29.92 in 10.0 mi SW 6.9 mph 17.3 mph N/A   Clear
2:55 PM 87.3 °F 47.5 °F 25% 29.92 in 10.0 mi SW 5.8 mph 9.2 mph N/A   Clear
3:15 PM 87.1 °F 47.3 °F 25% 29.91 in 10.0 mi SSW 10.4 mph 16.1 mph N/A   Clear
3:35 PM 87.8 °F 46.9 °F 24% 29.91 in 10.0 mi SSW 8.1 mph 17.3 mph N/A   Clear
3:55 PM 87.6 °F 46.8 °F 24% 29.91 in 10.0 mi SSW 9.2 mph 19.6 mph N/A   Clear
4:15 PM 87.8 °F 46.9 °F 24% 29.91 in 10.0 mi SW 12.7 mph - N/A   Clear
4:55 PM 87.4 °F 46.0 °F 24% 29.91 in 10.0 mi SSW 12.7 mph - N/A   Clear
5:15 PM 87.1 °F 46.8 °F 25% 29.91 in 10.0 mi SW 9.2 mph - N/A   Clear
5:35 PM 87.1 °F 46.4 °F 24% 29.91 in 10.0 mi SSW 10.4 mph 16.1 mph N/A   Clear
5:55 PM 86.5 °F 46.6 °F 25% 29.90 in 10.0 mi SSW 11.5 mph 16.1 mph N/A   Clear
6:15 PM 86.0 °F 46.8 °F 25% 29.90 in 10.0 mi SSW 11.5 mph 18.4 mph N/A   Clear
6:35 PM 85.5 °F 47.5 °F 27% 29.90 in 10.0 mi South 11.5 mph 16.1 mph N/A   Clear
6:55 PM 84.9 °F 47.3 °F 27% 29.90 in 10.0 mi SSW 10.4 mph - N/A   Clear
7:15 PM 84.2 °F 47.3 °F 28% 29.90 in 10.0 mi SSW 10.4 mph - N/A   Clear
7:35 PM 83.3 °F 47.7 °F 29% 29.89 in 10.0 mi South 8.1 mph - N/A   Clear
7:55 PM 81.7 °F 48.6 °F 31% 29.89 in 10.0 mi South 5.8 mph - N/A   Clear
8:15 PM 79.5 °F 48.7 °F 34% 29.90 in 10.0 mi South 5.8 mph - N/A   Clear
8:35 PM 77.7 °F 48.7 °F 36% 29.90 in 10.0 mi South 5.8 mph - N/A   Clear
8:55 PM 75.9 °F 49.1 °F 39% 29.90 in 10.0 mi South 5.8 mph - N/A   Clear
9:15 PM 74.7 °F 49.5 °F 41% 29.91 in 10.0 mi South 6.9 mph - N/A   Clear
9:35 PM 73.9 °F 49.6 °F 42% 29.91 in 10.0 mi South 6.9 mph - N/A   Clear
9:55 PM 73.0 °F 50.0 °F 44% 29.92 in 10.0 mi South 6.9 mph - N/A   Clear
10:15 PM 72.1 °F 50.0 °F 46% 29.93 in 10.0 mi South 6.9 mph - N/A   Clear
10:55 PM 68.4 °F 50.4 °F 53% 29.93 in 10.0 mi South 4.6 mph - N/A   Clear
11:55 PM 64.4 °F 50.7 °F 61% 29.94 in 10.0 mi South 6.9 mph - N/A   Clear